SCP
6 5 4 4 4 5 4 3 3 3 3 3 2 1 1 0 0 1 1 0 0 0 0 1 1 1 1 1 1 2 2 2 2 3 2 2 2 3 3 3 3 2 2
5 5 4 4 5 6 5 4 3 3 3 2 2 1 1 0 0 0 1 1 1 0 1 1 1 1 1 1 1 2 2 2 2 2 2 2 2 2 2 3 3 2 2
5 5 5 4 5 5 4 3 3 3 3 2 2 1 1 0 0 1 1 1 1 1 1 1 1 1 1 1 1 1 1 1 1 2 2 2 2 2 2 2 2 2 2
4 4 4 4 4 3 3 2 2 3 3 3 2 2 1 1 0 1 1 1 1 1 0 0 0 1 1 1 1 1 1 1 1 1 2 2 2 2 2 2 2 2 2
4 4 4 3 3 3 2 2 2 3 3 3 3 2 1 1 1 1 1 1 1 1 0 0 0 0 0 1 1 1 1 1 1 1 2 2 2 2 2 2 2 3 3
4 4 4 3 3 3 2 2 2 3 3 3 3 3 2 2 1 1 1 1 1 1 1 0 0 0 1 1 1 1 1 1 1 1 1 2 2 2 2 2 2 3 3
3 3 3 3 2 2 2 2 3 4 4 4 3 3 3 2 2 1 1 1 1 1 1 0 0 0 0 1 1 1 1 1 1 1 1 1 2 2 2 2 2 3 3
2 2 2 2 2 2 2 3 5 5 5 4 4 4 3 3 2 2 1 1 1 1 1 1 0 0 0 1 1 1 1 1 1 1 1 1 1 2 2 2 2 2 2
1 1 1 1 1 2 2 4 5 5 5 5 5 5 4 4 3 3 2 2 2 1 1 1 0 0 0 1 1 1 1 1 1 1 1 1 1 1 1 2 2 2 2
0 0 0 0 0 1 2 2 3 4 5 5 6 5 5 5 4 4 3 3 3 2 2 1 1 1 0 1 1 1 1 1 1 1 1 1 1 1 1 2 2 2 3
0 0 0 0 0 0 0 1 2 3 3 4 4 5 5 6 5 5 4 4 3 3 2 1 1 1 1 0 1 1 1 1 1 1 1 1 1 1 1 2 2 2 3
0 0 0 0 0 0 0 0 0 1 1 2 2 3 4 5 6 5 5 4 3 3 2 2 1 1 1 1 1 1 1 1 1 1 1 1 1 1 1 2 2 2 2
0 0 0 0 0 0 0 0 0 0 0 0 1 1 2 3 5 5 5 4 3 3 2 2 2 1 1 1 1 1 1 1 1 1 0 0 1 1 1 1 2 2 2
0 0 0 0 0 0 0 0 0 0 0 0 0 0 0 1 2 4 4 3 3 3 3 2 2 1 1 1 1 1 1 1 0 0 0 0 0 1 1 1 1 1 1
0 0 0 0 0 0 0 0 0 0 0 0 0 0 0 0 1 1 2 2 2 2 2 2 2 2 1 0 0 0 0 0 0 0 0 0 0 0 0 1 1 1 1
0 0 0 0 0 0 0 0 0 0 0 0 0 0 0 0 0 0 1 1 1 2 2 2 2 2 1 0 0 0 0 0 0 0 0 0 0 0 0 0 0 0 0
0 0 0 0 0 0 0 0 0 0 0 0 0 0 0 0 0 0 0 1 1 1 2 2 2 2 1 0 0 0 0 0 0 0 0 0 0 0 0 0 0 0 0
0 0 0 0 0 0 0 0 0 0 0 0 0 0 0 0 0 0 0 1 1 1 1 2 2 2 1 0 0 0 0 0 0 0 0 0 0 0 0 0 0 0 0
0 0 0 0 0 0 0 0 0 0 0 0 0 0 0 0 0 0 0 1 1 1 1 1 1 1 1 0 0 0 0 0 0 0 0 0 0 0 0 0 0 0 0
0 0 0 0 0 0 0 0 0 0 0 0 0 0 0 0 0 0 0 0 1 1 1 1 1 1 1 0 0 0 0 0 0 0 0 0 0 0 0 0 0 0 0
0 0 0 0 0 0 0 0 0 0 0 0 0 0 0 0 0 0 0 0 0 0 0 1 1 1 1 0 0 0 0 0 0 0 0 0 0 0 0 0 0 0 0
0 0 0 0 0 0 0 0 0 0 0 0 0 0 0 0 0 0 0 0 0 0 0 0 0 1 1 0 0 0 0 0 0 0 0 0 0 0 0 0 0 0 0
0 0 0 0 0 0 0 0 0 0 0 0 0 0 0 0 0 0 0 0 0 0 0 0 0 0 0 0 0 0 0 0 0 0 0 0 0 0 0 0 0 0 0
0 0 0 0 0 0 0 0 0 0 0 0 0 0 0 0 0 0 0 0 0 0 0 0 0 0 0 0 0 0 0 0 0 0 0 0 0 0 0 0 0 0 0
0 0 0 0 0 0 0 0 0 0 0 0 0 0 0 0 0 0 0 0 0 0 0 0 0 0 0 0 0 0 0 0 0 0 0 0 0 0 0 0 0 0 0
0 0 0 0 0 0 0 0 0 0 0 0 0 0 0 0 0 0 0 0 0 0 0 0 0 0 0 0 0 0 0 0 0 0 0 0 0 0 0 0 0 0 0
Wind_Speed
9 8 8 7 7 7 6 6 5 5 4 3 3 3 3 3 3 3 2 3 4 5 5 7 7 8 9 9 11 11 12 11 9 10 12 12 14 14 12 12 12 13 14
9 9 8 8 8 8 7 6 6 6 5 3 2 3 4 4 4 4 3 4 5 5 6 6 8 8 8 10 11 11 11 11 9 10 11 12 12 12 13 12 12 13 12
10 10 10 9 8 8 7 5 5 5 5 4 4 3 4 5 5 5 4 3 5 6 6 7 9 9 10 10 10 11 13 12 12 11 11 11 11 10 9 11 10 10 10
9 9 9 9 8 7 6 6 6 6 6 6 6 7 6 6 6 5 4 4 5 6 6 7 8 9 9 9 10 11 11 12 12 11 11 13 13 11 10 8 9 10 10
6 6 5 5 4 4 4 5 6 7 7 7 7 7 8 6 5 4 4 6 5 6 6 7 8 8 9 9 10 10 11 10 12 11 11 12 11 13 12 11 9 8 9
2 2 2 2 3 4 6 7 7 8 8 8 8 8 8 7 7 7 6 6 5 5 6 6 7 8 8 9 10 10 12 11 12 12 12 11 10 11 11 13 11 9 6
11 11 11 10 9 9 9 9 8 8 7 8 8 8 8 8 8 8 7 7 7 6 5 7 7 8 9 10 10 10 11 11 12 12 11 12 12 11 10 10 10 8 5
16 15 15 13 12 12 12 11 9 8 7 6 6 6 7 7 7 6 7 7 7 7 6 8 9 10 11 11 10 10 11 10 11 12 13 10 11 11 10 10 9 8 6
16 15 15 15 15 14 15 14 12 10 8 7 6 6 7 8 8 7 8 8 6 7 8 8 9 10 10 11 11 9 10 10 11 11 12 11 10 10 10 9 9 8 7
15 15 14 15 14 14 14 14 14 13 12 11 9 7 8 8 8 9 9 8 8 8 9 9 10 10 10 10 10 10 9 10 10 8 10 10 9 9 9 9 8 8 7
14 13 13 13 13 14 14 14 14 14 14 13 13 11 10 10 9 9 10 10 9 9 10 10 10 10 10 10 9 10 10 10 9 8 9 10 10 8 7 7 7 7 6
13 13 13 13 13 13 14 13 13 13 13 13 13 13 13 12 11 11 11 11 11 11 11 10 10 10 10 9 10 10 9 9 8 7 7 6 5 5 4 4 5 5 6
16 15 14 14 13 13 13 13 13 13 13 13 13 13 14 14 14 13 13 12 12 12 12 11 10 10 9 9 9 8 7 7 6 5 5 4 3 2 1 3 4 5 7
15 15 14 13 13 12 12 12 12 12 13 13 13 13 14 14 15 15 14 13 13 13 13 12 11 10 9 9 8 7 6 5 3 3 3 3 1 2 5 5 7 8 9
14 13 12 11 11 10 9 9 10 10 9 10 11 11 11 12 14 15 14 14 13 14 13 13 12 11 9 7 6 6 5 3 1 2 3 5 6 8 6 6 8 9 8
17 16 16 15 15 14 13 13 12 12 11 12 12 11 10 11 12 13 14 14 14 13 13 13 13 12 9 4 2 6 4 3 2 3 5 6 8 11 13 12 9 7 7
20 20 20 19 18 18 17 16 16 15 14 14 14 13 13 12 12 12 12 13 13 13 13 13 13 13 8 9 7 5 5 4 3 4 4 6 8 9 10 11 11 10 8
23 23 21 21 21 21 20 19 19 18 17 16 16 15 15 14 13 12 12 11 10 10 11 12 13 12 11 13 10 7 7 5 4 5 6 7 8 8 9 10 9 9 8
23 22 23 24 23 22 21 21 20 19 19 18 17 16 16 15 14 14 13 11 9 9 10 10 11 12 11 15 13 10 8 7 6 6 6 7 9 8 8 10 11 10 9
22 23 23 24 23 22 21 21 21 20 20 19 18 17 16 16 16 15 14 12 10 9 9 8 9 11 11 15 15 13 9 8 8 7 6 6 8 8 5 9 11 11 10
25 24 23 21 20 21 21 22 21 21 20 19 18 17 16 16 16 15 13 12 11 10 9 8 7 7 8 13 16 14 8 9 9 8 8 8 9 7 3 5 8 11 11
25 25 22 21 20 20 21 21 21 20 19 18 18 17 16 16 14 14 13 12 11 11 10 7 5 4 4 7 13 14 11 5 8 7 8 9 11 8 5 5 11 11 10
24 22 22 22 20 18 18 21 20 20 19 19 18 17 17 15 14 14 13 12 11 10 8 6 5 4 4 5 10 13 9 4 5 6 12 14 14 12 9 12 11 9 7
23 21 22 21 20 19 20 20 20 19 18 18 17 15 15 15 15 12 12 12 11 10 7 6 5 5 5 5 8 10 8 8 9 11 14 13 10 9 12 10 8 6 6
22 20 20 20 22 21 20 20 19 19 18 17 15 14 13 13 13 12 11 11 10 7 6 5 4 5 6 6 9 11 11 11 11 13 11 11 10 10 10 9 7 6 6
22 22 22 22 22 22 21 19 18 18 17 15 14 11 10 10 11 11 11 11 10 6 6 3 4 3 3 7 9 10 10 13 17 14 12 11 11 10 10 9 8 8 7
Wind_Direction
170 175 172 168 164 161 167 175 175 166 186 196 231 236 249 259 259 260 272 278 294 304 296 295 299 285 284 287 286 280 272 263 262 263 261 257 251 245 245 243 245 243 242
183 181 173 169 163 157 161 167 174 171 192 187 233 267 294 282 290 283 264 274 291 300 293 299 293 289 289 279 275 273 275 274 260 257 266 263 254 237 235 235 236 242 243
200 182 176 173 171 167 173 183 185 192 210 212 228 228 239 249 245 251 250 271 298 299 303 297 294 297 287 283 282 279 270 269 266 252 255 264 261 261 241 225 234 241 241
206 184 179 181 182 181 189 202 211 218 221 226 241 254 271 284 297 292 292 292 282 291 293 291 290 288 287 286 278 272 273 269 266 259 248 255 274 278 267 234 221 224 234
199 179 191 193 200 214 229 231 233 234 230 234 240 249 257 271 278 279 272 276 279 277 282 289 293 289 285 288 286 281 272 268 265 265 260 250 249 250 258 261 248 221 221
69 57 20 338 313 298 282 267 253 247 240 234 239 244 259 266 275 273 281 274 277 274 276 287 289 286 289 288 281 277 272 267 265 264 264 259 250 241 239 245 247 243 230
33 27 18 5 352 339 323 307 289 272 256 242 241 242 248 252 253 263 268 276 287 286 293 295 293 292 292 288 285 279 275 272 265 259 257 257 255 255 254 252 251 250 231
43 38 33 26 16 8 358 345 329 309 293 270 259 254 250 250 254 250 273 279 286 296 307 293 290 292 292 291 290 286 278 273 268 263 259 257 255 252 249 246 246 241 222
42 38 34 30 25 21 17 10 3 354 343 324 299 271 258 258 262 259 253 264 269 280 282 286 288 291 292 293 294 288 287 281 272 266 259 254 253 250 245 240 235 231 217
32 30 26 23 19 17 16 14 14 9 2 352 334 312 289 271 261 258 261 265 268 270 274 279 284 289 291 291 293 293 291 290 281 273 269 262 254 247 243 239 233 225 223
17 15 12 10 8 7 7 6 6 5 2 359 349 337 320 302 284 270 264 260 259 259 261 269 277 283 288 292 294 294 298 296 293 286 276 270 261 249 240 234 227 215 201
356 355 355 355 355 356 355 354 352 353 352 351 346 344 337 326 310 294 281 270 260 253 252 257 265 272 281 289 292 296 303 301 298 299 297 288 273 246 239 223 209 192 171
341 341 343 343 344 344 343 341 340 341 338 337 336 337 336 335 328 316 302 285 269 257 252 249 254 263 274 283 287 291 297 301 307 320 324 312 280 226 172 150 139 133 128
327 328 329 329 330 329 329 327 327 328 327 326 324 325 326 327 324 321 314 300 282 265 252 245 246 252 261 269 277 281 283 290 316 348 3 12 37 128 119 112 113 116 117
309 308 304 302 300 300 300 299 299 299 301 302 301 302 308 312 313 316 315 309 293 274 258 247 242 242 246 252 263 265 261 258 237 61 54 56 75 91 99 109 114 119 122
305 304 300 298 297 298 296 293 289 286 281 279 279 278 281 288 295 301 306 305 298 284 266 250 242 237 237 151 202 270 234 224 171 111 94 97 96 95 90 87 87 102 135
311 309 307 304 303 301 299 293 290 287 284 279 277 274 268 267 271 280 287 294 298 293 276 255 242 233 211 163 189 235 238 191 146 119 115 104 106 116 111 99 91 76 68
312 309 306 303 301 299 298 296 292 289 286 283 281 280 274 268 264 266 272 281 292 295 287 268 249 234 201 175 188 206 216 176 147 128 121 119 126 124 129 127 115 97 67
308 306 304 302 301 299 296 293 291 289 286 284 283 282 279 274 270 268 269 274 283 291 291 284 265 241 204 179 185 203 194 169 154 140 131 133 129 125 138 134 126 114 94
306 304 302 301 298 297 297 293 291 287 284 283 282 281 280 276 272 270 269 270 275 280 286 285 277 257 223 183 184 202 199 171 161 146 135 118 127 136 155 150 140 131 124
305 305 303 301 300 299 295 290 287 285 285 284 281 277 276 273 267 263 261 261 264 275 281 279 272 267 251 187 184 199 212 175 177 165 159 128 127 137 134 167 147 138 137
307 307 305 302 301 299 295 290 286 286 284 281 277 273 271 269 266 256 252 253 259 264 267 264 258 245 259 207 190 196 223 210 181 171 146 124 132 130 128 123 123 136 149
306 307 305 302 300 297 294 289 288 287 284 279 275 272 268 263 261 260 252 247 243 251 261 257 245 224 219 193 179 188 203 210 181 125 107 124 132 129 115 120 136 160 160
307 307 304 301 298 295 291 287 286 284 280 276 272 267 264 258 251 247 246 244 243 243 249 252 240 217 206 182 171 178 175 152 132 119 119 128 137 123 117 141 166 177 156
306 305 301 298 296 294 290 287 285 283 278 274 268 263 259 255 254 247 243 245 246 250 258 268 245 211 207 182 181 180 177 176 152 144 148 150 149 148 152 158 157 151 152
307 305 301 299 298 295 291 287 284 281 276 271 263 255 250 248 246 243 233 218 232 183 189 232 264 230 188 154 173 186 168 151 149 160 159 159 159 158 158 158 158 161 160